This is the latest recevied weather packets stored in our database for station/object OK1HOL-13. If no packets are shown the sender has not sent any weather packets the latest 10 day(s).
| Time | Temp. | Humidity | Pressure | Rain* | Wind** | Luminosity | Snow |
|---|---|---|---|---|---|---|---|
| 1777527083 | 3.89° C | 45% | 1032.6 hPa | - | - | 19 W/m² | - |
| 1777526483 | 3.33° C | 47% | 1032.7 hPa | - | - | 18 W/m² | - |
| 1777525883 | 2.78° C | 49% | 1032.7 hPa | - | - | 16 W/m² | - |
| 1777525283 | 2.78° C | 48% | 1032.8 hPa | - | - | 15 W/m² | - |
| 1777524683 | 2.78° C | 49% | 1032.8 hPa | - | - | 13 W/m² | - |
| 1777524083 | 2.22° C | 51% | 1032.6 hPa | - | - | 12 W/m² | - |
| 1777523483 | 2.22° C | 51% | 1032.6 hPa | - | - | 10 W/m² | - |
| 1777522883 | 2.22° C | 52% | 1032.5 hPa | - | - | 8 W/m² | - |
| 1777522287 | 2.22° C | 53% | 1032.2 hPa | - | - | 6 W/m² | - |
| 1777521683 | 1.67° C | 54% | 1032 hPa | - | - | 4 W/m² | - |
| 1777521083 | 1.67° C | 55% | 1032.1 hPa | - | - | 2 W/m² | - |
| 1777520483 | 1.67° C | 54% | 1032 hPa | - | - | 1 W/m² | - |
| 1777519883 | 2.22° C | 53% | 1031.9 hPa | - | - | 0 W/m² | - |
| 1777519283 | 2.22° C | 53% | 1031.9 hPa | - | - | 0 W/m² | - |
| 1777518686 | 2.22° C | 52% | 1031.7 hPa | - | - | 0 W/m² | - |
| 1777518081 | 2.22° C | 53% | 1031.7 hPa | - | - | 0 W/m² | - |
| 1777517481 | 2.78° C | 52% | 1031.7 hPa | - | - | 0 W/m² | - |
| 1777516881 | 2.78° C | 51% | 1031.7 hPa | - | - | 0 W/m² | - |
| 1777516281 | 2.78° C | 50% | 1031.6 hPa | - | - | 0 W/m² | - |
| 1777515682 | 2.78° C | 49% | 1031.6 hPa | - | - | 0 W/m² | - |
| 1777515082 | 3.33° C | 50% | 1031.5 hPa | - | - | 0 W/m² | - |
| 1777514482 | 3.33° C | 51% | 1031.6 hPa | - | - | 0 W/m² | - |
| 1777513881 | 3.33° C | 52% | 1031.5 hPa | - | - | 0 W/m² | - |
| 1777513282 | 3.33° C | 51% | 1031.4 hPa | - | - | 0 W/m² | - |
| 1777512682 | 3.89° C | 50% | 1031.4 hPa | - | - | 0 W/m² | - |
* Rain since midnight (hover to see other rain measurements)
** Current wind speed in m/s (hover to see current wind gust speed)